Regional Weather Roundup
Issued by NWS Midland/Odessa, TX

Skip options and go directly to product.
Home | Oldest Version | Previous Version | Current Version | All | Text Only | Save Text | Print | Product List | Glossary On

Skip product version selection by date and time.   
573
ASUS44 KMAF 181510
RWRMAF
MIDLAND AREA WEATHER ROUNDUP
NATIONAL WEATHER SERVICE MIDLAND TX
1000 AM CDT FRI APR 18 2014

...IN SOUTHWEST TEXAS AND SOUTHEAST NEW MEXICO...

CITY           SKY/WX    TMP DP  RH WIND       PRES   REMARKS
ALPINE         SUNNY     58  48  70 E5        30.27S
ANDREWS        CLOUDY    52  49  90 SE9       30.25R FOG
ARTESIA        CLOUDY    48  48 100 SE6       30.22S FOG
BIG SPRING     CLOUDY    54  49  83 E3        30.27F
CARLSBAD       CLOUDY    52  49  89 SE6       30.20S FOG
DRYDEN           N/A     63  59  87 E12       30.19R
FORT STOCKTON  CLOUDY    63  53  70 SE10      30.20S
GUAD PASS      MOSUNNY   50  45  83 NE25      30.21R
HOBBS          CLOUDY    48  48 100 SE8       30.24S FOG
MARFA          MOSUNNY   59  46  63 SE5       30.24R
MIDLAND AIRPK  CLOUDY    55  50  85 E8        30.25S
MIDLAND INTL   CLOUDY    54  51  90 E6        30.24R FOG
ODESSA         CLOUDY    54  51  90 E10       30.24S FOG
PECOS          CLOUDY    60  51  69 E8        30.19F
PRESIDIO       FAIR      67  52  58 NE13      30.14R
SEMINOLE       CLOUDY    50  48  93 SE7       30.26R FOG
SNYDER         CLOUDY    51  48  89 CALM      30.27R
WINK           CLOUDY    57  51  80 E8        30.20S
$$
...OTHER STATIONS IN TEXAS...

CITY           SKY/WX    TMP DP  RH WIND       PRES   REMARKS
ABILENE        CLOUDY    53  49  86 VRB5      30.26R FOG
AMARILLO       CLOUDY    46  40  79 S13       30.24R
AUSTIN         CLOUDY    65  60  84 N6        30.20S FOG
BROWNSVILLE    CLOUDY    71  67  87 NE8       30.14R
CORPUS CHRISTI PTSUNNY   69  60  73 NE12      30.16S
DALLAS FTW     PTSUNNY   62  53  72 E8        30.24R
DEL RIO        CLOUDY    65  61  87 E12       30.18S
EL PASO        CLOUDY    59  42  53 E7        30.13S
HOUSTON INT    PTSUNNY   66  54  65 NE8       30.19S
LUBBOCK        MOSUNNY   48  41  76 SE6       30.24S
SAN ANGELO     MOSUNNY   62  53  72 E8        30.23S
SAN ANTONIO    PTSUNNY   68  57  68 E7        30.20R
WACO           SUNNY     64  54  69 NE3       30.22S
WICHITA FALLS  NOT AVBL
$$
...OTHER LOCATIONS IN NEW MEXICO...

CITY           SKY/WX    TMP DP  RH WIND       PRES   REMARKS
ALAMAGORDO     MOSUNNY   57  27  30 NW7       30.16S
ALBUQUERQUE    PTSUNNY   53  28  38 N3        30.19R
CANNON AFB     CLOUDY    43  32  64 SW9       30.23S WCI  38
CLOVIS         PTSUNNY   43  36  75 SW13      30.25S WCI  36
HOLLOMAN AFB   MOSUNNY   60  29  30 W5        30.15R
ROSWELL        CLOUDY    50  45  83 SE10      30.22S
RUIDOSO        SUNNY     48  28  46 CALM      30.26S
SANTA FE       MOSUNNY   51  29  42 S7        30.21S
TRUTH OR CONSE PTSUNNY   60  24  25 CALM      30.14S
TUCUMCARI      SUNNY     50  38  63 S8        30.18F
$$

USA.gov is the U.S. government's official web portal to all federal, state and local government web resources and services.